Location: Fort Wayne
(41.1310°N, 85.1290°W)
Time: 14:29:47
(UTC-05:00)

Cosmos 1980 - Visible Passes

Search period start: 18 December 2014 00:00
Search period end: 28 December 2014 00:00
Orbit: 838 x 849 km, 71.0° (Epoch: 17 December)

Date Brightness Start Highest point End Pass type
(mag) Time Alt. Az. Time Alt. Az. Time Alt. Az.
18 Dec 5.5 18:18:50 10° NW 18:23:55 35° WSW 18:28:58 10° SSW visible
19 Dec 4.2 07:25:43 10° SSW 07:31:19 69° ESE 07:36:59 10° NNE visible
19 Dec 5.5 18:04:20 10° NW 18:09:28 36° WSW 18:14:35 10° S visible
20 Dec 4.2 07:11:17 10° S 07:16:52 66° ESE 07:22:31 10° NNE visible
20 Dec 5.4 17:49:50 10° NW 17:55:02 38° WSW 18:00:11 10° S visible
21 Dec 4.3 06:56:51 10° S 07:02:25 63° ESE 07:08:03 10° NNE visible
22 Dec 4.3 06:42:25 10° S 06:47:59 61° ESE 06:53:34 10° NNE visible
23 Dec 4.4 06:28:00 10° S 06:33:32 58° ESE 06:39:06 10° NNE visible
24 Dec 4.4 06:13:35 10° S 06:19:05 56° ESE 06:24:38 10° NNE visible
25 Dec 4.5 05:59:10 10° S 06:04:38 53° ESE 06:10:09 10° NNE visible
26 Dec 4.5 05:44:45 10° S 05:50:12 51° ESE 05:55:41 10° NNE visible
26 Dec 4.7 07:29:57 10° WSW 07:34:34 25° NW 07:39:13 10° N visible
27 Dec 4.6 05:30:20 10° S 05:35:45 49° ESE 05:41:12 10° NE visible
27 Dec 4.6 07:15:24 10° WSW 07:20:05 26° NW 07:24:48 10° N visible
